{"data":{"norad_id":67506,"epoch":"2026-05-24T23:31:27.394752Z","epoch_age_seconds":87444,"freshness":"FRESH","line1":"1 67506U 26012P   26144.98017818  .00027967  00000+0  10215-2 0  9995","line2":"2 67506  42.9987 243.1871 0001191 291.1706  68.9018 15.27595690 19437","mean_motion":15.2759569,"eccentricity":0.0001191,"inclination_deg":42.9987,"raan_deg":243.1871,"arg_perigee_deg":291.1706,"mean_anomaly_deg":68.9018,"bstar":0.0010215,"rev_number":1943,"period_min":94.265780495885,"perigee_km":482.18495326874,"apogee_km":483.81927660592,"semimajor_km":6861.1391149373,"source":"CELESTRAK","updated_at":"2026-05-25T13:38:21.569184Z"}}